Regional Weather Roundup
Issued by NWS Burlington, VT

Home | Current Version | Previous Version | Text Only | Print | Product List | Glossary On
Versions: 1 2 3 4 5 6 7 8 9 10 11 12 13 14 15 16 17 18 19 20 21 22 23 24 25 26 27 28 29 30 31 32 33 34 35 36 37 38 39 40 41 42 43 44 45 46 47 48 49 50
000
ASUS41 KBTV 291910
RWRBTV
VERMONT REGIONAL WEATHER ROUNDUP
NATIONAL WEATHER SERVICE BURLINGTON VT
300 PM EDT SAT AUG 29 2015

NOTE: "FAIR" INDICATES FEW OR NO CLOUDS BELOW 12,000 FEET WITH NO
SIGNIFICANT WEATHER AND/OR OBSTRUCTIONS TO VISIBILITY.

* THESE REPORTS ARE NOT UNDER NWS QUALITY CONTROL AND/OR DO NOT
  REPORT WEATHER SUCH AS PRECIPITATION AND FOG.

VTZ001>019-292000-
_____VERMONT_____


CITY           SKY/WX    TMP DP  RH WIND       PRES   REMARKS
BURLINGTON     PTSUNNY   77  53  43 S3        30.10F
MONTPELIER     MOSUNNY   74  53  48 S6        30.16F
MORRISVILLE    MOSUNNY   75  56  51 NE3       30.13F
ST. JOHNSBURY*   N/A     74  56  53 MISG      30.10F
LYNDONVILLE*   FAIR      72  58  60 E3        30.14F
MIDDLEBURY*    FAIR      78  53  41 S7        30.11F
RUTLAND*       MOSUNNY   75  52  43 W6        30.15F
SPRINGFIELD    MOSUNNY   77  55  46 VRB5      30.12F
HIGHGATE*      FAIR      74  59  58 SW3       30.10F
NEWPORT*       FAIR      70  56  62 SW7       30.13F
BENNINGTON     MOSUNNY   77  55  46 VRB3      30.15F

_____LAKE CHAMPLAIN_____


CITY           SKY/WX    TMP DP  RH WIND       PRES   REMARKS

$$

NYZ007-026>031-035-052-083-292000-
_____NORTHERN NEW YORK_____


CITY           SKY/WX    TMP DP  RH WIND       PRES   REMARKS
PLATTSBURGH    MOSUNNY   73  58  59 SE13      30.09F
SARANAC LAKE   PTSUNNY   73  53  49 SW10G17   30.12F
MASSENA        CLOUDY    73  59  61 SW8       30.10F
OGDENSBURG*    SUNNY     73  61  64 SW8       30.10S
POTSDAM*       SUNNY     73  63  68 SW9       30.10F
WATERTOWN      MOSUNNY   74  62  66 W13       30.11F
FT DRUM        MOSUNNY   77  59  53 SW12      30.10F
ALBANY         PTSUNNY   79  58  48 S9        30.13F
GLENS FALLS    MOSUNNY   79  58  48 S8        30.11F

$$
NHZ002-005-011-292000-
_____NEW HAMPSHIRE_____


CITY           SKY/WX    TMP DP  RH WIND       PRES   REMARKS
LEBANON        MOSUNNY   78  58  49 W5        30.11F
KEENE          PTSUNNY   75  55  50 SW7       30.14F
MT WASHINGTON  PTSUNNY   55  48  76 SW9         N/A
PLYMOUTH       FAIR      78  56  47 SW5       30.10F
WHITEFIELD     SUNNY     75  53  46 W5        30.12F

$$

_____REGIONAL QUEBEC LOCATIONS_____


CITY           SKY/WX    TMP DP  RH WIND       PRES   REMARKS
MONTREAL       PTSUNNY   75  59  57 SW10      30.09F
QUEBEC CITY    CLOUDY    70  61  73 SW9       30.05F
SHERBROOKE     MOSUNNY   72  57  60 W9        30.10F

_____REGIONAL ONTARIO LOCATIONS_____


CITY           SKY/WX    TMP DP  RH WIND       PRES   REMARKS
OTTAWA         CLOUDY    73  57  56 SW10      30.08F

______KEY______
VSB  - VISIBILITY IN MILES
WCI  - WIND CHILL INDEX
HX   - HEAT INDEX
$$
NNNN



USA.gov is the U.S. government's official web portal to all federal, state and local government web resources and services.